| time (UTC) | temp C | wind direction | speed KPH | gust KPH | rain 1hr cm | rain 24hr cm | rain mn cm | humidity % | barometer mb |
| 20260506034056 | 20 | 18 | 4.8 | 11.3 | 0.00 | 0.00 | 0.00 | 72 | 1010.0 |
| 20260506033554 | 21 | 319 | 8.0 | 12.9 | 0.00 | 0.00 | 0.00 | 71 | 1010.1 |
| 20260506033050 | 21 | 274 | 3.2 | 9.7 | 0.00 | 0.00 | 0.00 | 71 | 1010.0 |
| 20260506032548 | 21 | 356 | 6.4 | 20.9 | 0.00 | 0.00 | 0.00 | 70 | 1009.8 |
| 20260506032045 | 21 | 353 | 4.8 | 4.8 | 0.00 | 0.00 | 0.00 | 70 | 1009.5 |
| 20260506031542 | 21 | 308 | 4.8 | 16.1 | 0.00 | 0.00 | 0.00 | 70 | 1009.5 |
| 20260506031039 | 21 | 87 | 3.2 | 14.5 | 0.00 | 0.00 | 0.00 | 69 | 1009.5 |
| 20260506030537 | 21 | 345 | 3.2 | 11.3 | 0.00 | 0.00 | 0.00 | 70 | 1009.5 |
| 20260506030034 | 21 | 27 | 8.0 | 12.9 | 0.00 | 0.00 | 0.00 | 70 | 1009.2 |
| 20260506025531 | 21 | 345 | 4.8 | 14.5 | 0.00 | 0.00 | 0.00 | 70 | 1009.4 |
| 20260506025027 | 21 | 10 | 3.2 | 11.3 | 0.00 | 0.00 | 0.00 | 70 | 1009.4 |
| 20260506024524 | 21 | 343 | 4.8 | 12.9 | 0.00 | 0.00 | 0.00 | 70 | 1009.3 |
| 20260506024020 | 21 | 316 | 8.0 | 16.1 | 0.00 | 0.00 | 0.00 | 70 | 1009.1 |
| 20260506023516 | 22 | 349 | 11.3 | 16.1 | 0.00 | 0.00 | 0.00 | 69 | 1008.9 |
| 20260506023015 | 22 | 293 | 12.9 | 17.7 | 0.00 | 0.00 | 0.00 | 69 | 1008.8 |
| 20260506022512 | 22 | 341 | 11.3 | 17.7 | 0.00 | 0.00 | 0.00 | 68 | 1008.8 |
| 20260506022009 | 22 | 58 | 3.2 | 12.9 | 0.00 | 0.00 | 0.00 | 68 | 1008.4 |
| 20260506021506 | 22 | 264 | 8.0 | 17.7 | 0.00 | 0.00 | 0.00 | 68 | 1008.3 |
| 20260506021004 | 22 | 348 | 4.8 | 8.0 | 0.00 | 0.00 | 0.00 | 68 | 1008.1 |
| 20260506020501 | 22 | 334 | 6.4 | 16.1 | 0.00 | 0.00 | 0.00 | 68 | 1007.9 |
| 20260506015957 | 23 | 299 | 9.7 | 16.1 | 0.00 | 0.00 | 0.00 | 67 | 1007.9 |
| 20260506015455 | 23 | 9 | 4.8 | 9.7 | 0.00 | 0.00 | 0.00 | 67 | 1007.4 |
| 20260506014952 | 23 | 33 | 3.2 | 8.0 | 0.00 | 0.00 | 0.00 | 67 | 1007.4 |
| 20260506014449 | 23 | 43 | 4.8 | 12.9 | 0.00 | 0.00 | 0.00 | 67 | 1007.4 |
| 20260506013945 | 23 | 354 | 6.4 | 11.3 | 0.00 | 0.00 | 0.00 | 67 | 1007.0 |
| 20260506013444 | 23 | 307 | 3.2 | 12.9 | 0.00 | 0.00 | 0.00 | 67 | 1007.0 |
| 20260506012939 | 24 | 351 | 6.4 | 12.9 | 0.00 | 0.00 | 0.00 | 67 | 1007.1 |
| 20260506012436 | 24 | 332 | 3.2 | 11.3 | 0.00 | 0.00 | 0.00 | 66 | 1006.8 |
| 20260506011933 | 25 | 312 | 6.4 | 12.9 | 0.00 | 0.00 | 0.00 | 66 | 1006.6 |
| 20260506011431 | 25 | 54 | 4.8 | 11.3 | 0.00 | 0.00 | 0.00 | 65 | 1006.6 |
| 20260506010927 | 25 | 350 | 6.4 | 14.5 | 0.00 | 0.00 | 0.00 | 64 | 1006.7 |
| 20260506010426 | 25 | 355 | 3.2 | 8.0 | 0.00 | 0.00 | 0.00 | 63 | 1006.7 |
| 20260506005922 | 25 | 62 | 4.8 | 9.7 | 0.00 | 0.00 | 0.00 | 62 | 1006.5 |
| 20260506005420 | 26 | 23 | 6.4 | 8.0 | 0.00 | 0.00 | 0.00 | 62 | 1006.3 |
| 20260506004915 | 26 | 336 | 8.0 | 14.5 | 0.00 | 0.00 | 0.00 | 62 | 1006.3 |
| 20260506004413 | 26 | 2 | 1.6 | 8.0 | 0.00 | 0.00 | 0.00 | 62 | 1006.2 |
| 20260506003909 | 26 | 83 | 1.6 | 4.8 | 0.00 | 0.00 | 0.00 | 62 | 1006.1 |
| 20260506003405 | 26 | 313 | 3.2 | 11.3 | 0.00 | 0.00 | 0.00 | 61 | 1005.9 |
| 20260506002902 | 26 | 335 | 8.0 | 9.7 | 0.00 | 0.00 | 0.00 | 61 | 1006.0 |
| 20260506002358 | 26 | 9 | 4.8 | 11.3 | 0.00 | 0.00 | 0.00 | 61 | 1006.1 |
| 20260506001854 | 26 | 322 | 4.8 | 11.3 | 0.00 | 0.00 | 0.00 | 60 | 1006.0 |
| 20260506001351 | 27 | 25 | 6.4 | 16.1 | 0.00 | 0.00 | 0.00 | 59 | 1005.9 |
| 20260506000848 | 27 | 274 | 4.8 | 9.7 | 0.00 | 0.00 | 0.00 | 59 | 1006.0 |
| 20260506000346 | 27 | 311 | 3.2 | 11.3 | 0.00 | 0.00 | 0.00 | 58 | 1005.9 |
| 20260505235842 | 27 | 252 | 4.8 | 4.8 | 0.00 | 0.00 | 0.00 | 58 | 1005.9 |
| 20260505235340 | 27 | 252 | 4.8 | 9.7 | 0.00 | 0.00 | 0.00 | 57 | 1005.9 |
| 20260505234836 | 27 | 357 | 4.8 | 9.7 | 0.00 | 0.00 | 0.00 | 57 | 1005.6 |
| 20260505234335 | 28 | 24 | 11.3 | 14.5 | 0.00 | 0.00 | 0.00 | 57 | 1005.6 |
| 20260505233831 | 28 | 11 | 4.8 | 14.5 | 0.00 | 0.00 | 0.00 | 57 | 1005.5 |
| 20260505233329 | 28 | 7 | 4.8 | 14.5 | 0.00 | 0.00 | 0.00 | 57 | 1005.3 |
| 20260505232826 | 29 | 295 | 9.7 | 17.7 | 0.00 | 0.00 | 0.00 | 56 | 1005.4 |
| 20260505232324 | 30 | 13 | 4.8 | 11.3 | 0.00 | 0.00 | 0.00 | 52 | 1005.2 |
| 20260505231820 | 30 | 277 | 8.0 | 9.7 | 0.00 | 0.00 | 0.00 | 50 | 1005.3 |
| 20260505231318 | 30 | 273 | 4.8 | 8.0 | 0.00 | 0.00 | 0.00 | 49 | 1005.0 |
| 20260505230816 | 31 | 123 | 1.6 | 3.2 | 0.00 | 0.00 | 0.00 | 50 | 1005.0 |
| 20260505230313 | 31 | 273 | 4.8 | 9.7 | 0.00 | 0.00 | 0.00 | 49 | 1004.8 |
| 20260505225809 | 31 | 353 | 8.0 | 11.3 | 0.00 | 0.00 | 0.00 | 48 | 1004.8 |
| 20260505225307 | 31 | 264 | 3.2 | 9.7 | 0.00 | 0.00 | 0.00 | 47 | 1004.7 |
| 20260505224802 | 31 | 18 | 4.8 | 12.9 | 0.00 | 0.00 | 0.00 | 47 | 1004.6 |
| 20260505224300 | 33 | 301 | 6.4 | 11.3 | 0.00 | 0.00 | 0.00 | 46 | 1004.3 |
| 20260505223757 | 33 | 126 | 0.0 | 4.8 | 0.00 | 0.00 | 0.00 | 48 | 1004.4 |
| 20260505223254 | 34 | 126 | 0.0 | 1.6 | 0.00 | 0.00 | 0.00 | 45 | 1004.4 |
| 20260505222749 | 34 | 145 | 0.0 | 4.8 | 0.00 | 0.00 | 0.00 | 43 | 1004.5 |
| 20260505222246 | 35 | 168 | 1.6 | 3.2 | 0.00 | 0.00 | 0.00 | 43 | 1004.3 |
| 20260505221743 | 35 | 179 | 1.6 | 3.2 | 0.00 | 0.00 | 0.00 | 44 | 1004.3 |
| 20260505221240 | 35 | 207 | 1.6 | 8.0 | 0.00 | 0.00 | 0.00 | 44 | 1004.3 |
| 20260505220736 | 34 | 177 | 1.6 | 3.2 | 0.00 | 0.00 | 0.00 | 44 | 1004.1 |
| 20260505220234 | 33 | 188 | 1.6 | 4.8 | 0.00 | 0.00 | 0.00 | 45 | 1004.4 |
| 20260505215732 | 34 | 166 | 0.0 | 1.6 | 0.00 | 0.00 | 0.00 | 44 | 1004.1 |
| 20260505215229 | 33 | 149 | 1.6 | 4.8 | 0.00 | 0.00 | 0.00 | 46 | 1004.1 |
| 20260505214727 | 33 | 335 | 1.6 | 11.3 | 0.00 | 0.00 | 0.00 | 45 | 1004.2 |
| 20260505214224 | 33 | 158 | 1.6 | 3.2 | 0.00 | 0.00 | 0.00 | 44 | 1004.2 |
| 20260505213721 | 33 | 148 | 1.6 | 11.3 | 0.00 | 0.00 | 0.00 | 45 | 1004.4 |
| 20260505213219 | 33 | 144 | 1.6 | 4.8 | 0.00 | 0.00 | 0.00 | 45 | 1004.4 |
| 20260505212714 | 33 | 133 | 0.0 | 1.6 | 0.00 | 0.00 | 0.00 | 47 | 1004.3 |
| 20260505212212 | 33 | 92 | 1.6 | 1.6 | 0.00 | 0.00 | 0.00 | 47 | 1004.4 |
| 20260505211708 | 33 | 112 | 1.6 | 3.2 | 0.00 | 0.00 | 0.00 | 46 | 1004.5 |
| 20260505211206 | 33 | 134 | 1.6 | 9.7 | 0.00 | 0.00 | 0.00 | 45 | 1004.6 |
| 20260505210702 | 33 | 192 | 1.6 | 3.2 | 0.00 | 0.00 | 0.00 | 45 | 1004.7 |
| 20260505210159 | 33 | 154 | 1.6 | 3.2 | 0.00 | 0.00 | 0.00 | 47 | 1004.7 |
| 20260505205657 | 33 | 143 | 1.6 | 1.6 | 0.00 | 0.00 | 0.00 | 47 | 1004.9 |
| 20260505205155 | 33 | 111 | 1.6 | 8.0 | 0.00 | 0.00 | 0.00 | 48 | 1005.0 |
| 20260505204651 | 33 | 251 | 4.8 | 9.7 | 0.00 | 0.00 | 0.00 | 48 | 1005.3 |
| 20260505204149 | 33 | 128 | 1.6 | 1.6 | 0.00 | 0.00 | 0.00 | 52 | 1005.0 |
| 20260505203646 | 33 | 224 | 3.2 | 4.8 | 0.00 | 0.00 | 0.00 | 50 | 1004.9 |
| 20260505203142 | 33 | 158 | 1.6 | 3.2 | 0.00 | 0.00 | 0.00 | 51 | 1005.0 |
| 20260505202638 | 32 | 180 | 1.6 | 4.8 | 0.00 | 0.00 | 0.00 | 51 | 1005.2 |
| 20260505202134 | 32 | 184 | 3.2 | 4.8 | 0.00 | 0.00 | 0.00 | 52 | 1005.4 |
| 20260505201625 | 32 | 160 | 1.6 | 4.8 | 0.00 | 0.00 | 0.00 | 53 | 1005.5 |
| 20260505201118 | 32 | 189 | 3.2 | 4.8 | 0.00 | 0.00 | 0.00 | 54 | 1005.5 |
| 20260505200615 | 32 | 116 | 1.6 | 3.2 | 0.00 | 0.00 | 0.00 | 54 | 1005.4 |
| 20260505200112 | 32 | 147 | 3.2 | 3.2 | 0.00 | 0.00 | 0.00 | 55 | 1005.2 |
| 20260505195608 | 32 | 203 | 3.2 | 4.8 | 0.00 | 0.00 | 0.00 | 54 | 1005.6 |
| 20260505195106 | 32 | 225 | 1.6 | 3.2 | 0.00 | 0.00 | 0.00 | 53 | 1005.4 |
| 20260505194602 | 32 | 186 | 3.2 | 4.8 | 0.00 | 0.00 | 0.00 | 54 | 1005.5 |
| 20260505194052 | 32 | 122 | 1.6 | 9.7 | 0.00 | 0.00 | 0.00 | 54 | 1005.6 |
| 20260505193550 | 32 | 162 | 4.8 | 9.7 | 0.00 | 0.00 | 0.00 | 53 | 1005.5 |
| 20260505193046 | 31 | 215 | 3.2 | 8.0 | 0.00 | 0.00 | 0.00 | 55 | 1005.6 |
| 20260505192545 | 31 | 260 | 4.8 | 8.0 | 0.00 | 0.00 | 0.00 | 56 | 1005.7 |
| 20260505192042 | 31 | 239 | 4.8 | 8.0 | 0.00 | 0.00 | 0.00 | 55 | 1005.4 |
| 20260505191540 | 31 | 217 | 3.2 | 4.8 | 0.00 | 0.00 | 0.00 | 56 | 1005.5 |
| 20260505191038 | 31 | 165 | 1.6 | 4.8 | 0.00 | 0.00 | 0.00 | 57 | 1005.6 |
| 20260505190532 | 31 | 201 | 3.2 | 4.8 | 0.00 | 0.00 | 0.00 | 57 | 1005.5 |
| 20260505190029 | 31 | 172 | 1.6 | 8.0 | 0.00 | 0.00 | 0.00 | 57 | 1005.6 |
| 20260505185526 | 31 | 111 | 0.0 | 9.7 | 0.00 | 0.00 | 0.00 | 59 | 1005.7 |
| 20260505185022 | 31 | 129 | 3.2 | 9.7 | 0.00 | 0.00 | 0.00 | 58 | 1005.9 |
| 20260505184519 | 31 | 191 | 4.8 | 8.0 | 0.00 | 0.00 | 0.00 | 58 | 1005.6 |
| 20260505184016 | 31 | 132 | 4.8 | 4.8 | 0.00 | 0.00 | 0.00 | 59 | 1005.9 |
| 20260505183513 | 30 | 259 | 4.8 | 9.7 | 0.00 | 0.00 | 0.00 | 61 | 1006.0 |
| 20260505183010 | 30 | 192 | 3.2 | 9.7 | 0.00 | 0.00 | 0.00 | 62 | 1005.8 |
| 20260505182506 | 30 | 283 | 4.8 | 8.0 | 0.00 | 0.00 | 0.00 | 61 | 1005.9 |
| 20260505182003 | 30 | 220 | 4.8 | 11.3 | 0.00 | 0.00 | 0.00 | 60 | 1005.8 |
| 20260505181500 | 30 | 136 | 1.6 | 8.0 | 0.00 | 0.00 | 0.00 | 62 | 1005.9 |
| 20260505180956 | 30 | 155 | 3.2 | 4.8 | 0.00 | 0.00 | 0.00 | 62 | 1006.0 |
| 20260505180452 | 30 | 170 | 3.2 | 9.7 | 0.00 | 0.00 | 0.00 | 63 | 1006.1 |
| 20260505175950 | 30 | 115 | 4.8 | 8.0 | 0.00 | 0.00 | 0.00 | 62 | 1006.1 |
| 20260505175445 | 30 | 185 | 4.8 | 8.0 | 0.00 | 0.00 | 0.00 | 63 | 1006.1 |
| 20260505174942 | 29 | 181 | 3.2 | 4.8 | 0.00 | 0.00 | 0.00 | 63 | 1006.1 |
| 20260505174440 | 29 | 228 | 4.8 | 11.3 | 0.00 | 0.00 | 0.00 | 64 | 1006.3 |
| 20260505173936 | 30 | 113 | 4.8 | 8.0 | 0.00 | 0.00 | 0.00 | 63 | 1006.2 |
| 20260505173432 | 30 | 165 | 3.2 | 8.0 | 0.00 | 0.00 | 0.00 | 63 | 1006.1 |
| 20260505172929 | 29 | 216 | 3.2 | 8.0 | 0.00 | 0.00 | 0.00 | 64 | 1006.2 |
| 20260505172428 | 28 | 189 | 3.2 | 8.0 | 0.00 | 0.00 | 0.00 | 66 | 1006.2 |
| 20260505171926 | 28 | 152 | 3.2 | 9.7 | 0.00 | 0.00 | 0.00 | 67 | 1006.2 |
| 20260505171424 | 28 | 180 | 1.6 | 4.8 | 0.00 | 0.00 | 0.00 | 67 | 1006.3 |
| 20260505170920 | 28 | 219 | 3.2 | 8.0 | 0.00 | 0.00 | 0.00 | 67 | 1006.3 |
| 20260505170417 | 28 | 88 | 1.6 | 8.0 | 0.00 | 0.00 | 0.00 | 66 | 1006.3 |
| 20260505165912 | 28 | 158 | 3.2 | 8.0 | 0.00 | 0.00 | 0.00 | 65 | 1006.3 |
| 20260505165409 | 28 | 213 | 4.8 | 8.0 | 0.00 | 0.00 | 0.00 | 65 | 1006.5 |
| 20260505164904 | 28 | 126 | 1.6 | 4.8 | 0.00 | 0.00 | 0.00 | 66 | 1006.4 |
| 20260505164401 | 28 | 198 | 3.2 | 4.8 | 0.00 | 0.00 | 0.00 | 66 | 1006.4 |
| 20260505163859 | 28 | 201 | 3.2 | 4.8 | 0.00 | 0.00 | 0.00 | 67 | 1006.4 |
| 20260505163358 | 28 | 188 | 4.8 | 8.0 | 0.00 | 0.00 | 0.00 | 68 | 1006.2 |
| 20260505162856 | 28 | 196 | 3.2 | 11.3 | 0.00 | 0.00 | 0.00 | 68 | 1005.8 |
| 20260505162352 | 28 | 208 | 8.0 | 12.9 | 0.00 | 0.00 | 0.00 | 67 | 1005.8 |
| 20260505161849 | 28 | 170 | 3.2 | 4.8 | 0.00 | 0.00 | 0.00 | 67 | 1005.9 |
| 20260505161346 | 27 | 165 | 3.2 | 16.1 | 0.00 | 0.00 | 0.00 | 69 | 1005.8 |
| 20260505160843 | 27 | 246 | 4.8 | 11.3 | 0.00 | 0.00 | 0.00 | 70 | 1006.0 |
| 20260505160341 | 27 | 168 | 4.8 | 8.0 | 0.00 | 0.00 | 0.00 | 71 | 1006.0 |
| 20260505140358 | 23 | 154 | 4.8 | 12.9 | 0.00 | 0.00 | 0.00 | 80 | 1006.1 |
| 20260505124812 | 21 | 208 | 1.6 | 3.2 | 0.00 | 0.00 | 0.00 | 87 | 1006.0 |
| 20260505124309 | 21 | 144 | 3.2 | 4.8 | 0.00 | 0.00 | 0.00 | 88 | 1005.9 |
| 20260505123804 | 21 | 161 | 0.0 | 3.2 | 0.00 | 0.00 | 0.00 | 88 | 1006.0 |
| 20260505123301 | 21 | 175 | 1.6 | 3.2 | 0.00 | 0.00 | 0.00 | 89 | 1005.6 |
| 20260505122757 | 21 | 161 | 0.0 | 3.2 | 0.00 | 0.00 | 0.00 | 89 | 1005.8 |
| 20260505122255 | 21 | 156 | 1.6 | 8.0 | 0.00 | 0.00 | 0.00 | 89 | 1005.8 |
| 20260505121751 | 21 | 111 | 1.6 | 9.7 | 0.00 | 0.00 | 0.00 | 89 | 1005.8 |
| 20260505121248 | 21 | 179 | 1.6 | 3.2 | 0.00 | 0.00 | 0.00 | 89 | 1005.8 |
| 20260505120744 | 21 | 191 | 3.2 | 4.8 | 0.00 | 0.00 | 0.00 | 89 | 1005.4 |
| 20260505120241 | 21 | 188 | 1.6 | 8.0 | 0.00 | 0.00 | 0.00 | 89 | 1005.4 |
| 20260505115739 | 21 | 150 | 3.2 | 4.8 | 0.00 | 0.00 | 0.00 | 90 | 1005.5 |
| 20260505115237 | 21 | 187 | 4.8 | 8.0 | 0.00 | 0.00 | 0.00 | 90 | 1005.5 |
| 20260505114734 | 21 | 212 | 1.6 | 4.8 | 0.00 | 0.00 | 0.00 | 89 | 1005.6 |
| 20260505114230 | 21 | 162 | 3.2 | 8.0 | 0.00 | 0.00 | 0.00 | 90 | 1005.6 |
| 20260505113727 | 21 | 119 | 4.8 | 8.0 | 0.00 | 0.00 | 0.00 | 90 | 1005.3 |
| 20260505113223 | 21 | 212 | 1.6 | 9.7 | 0.00 | 0.00 | 0.00 | 90 | 1005.3 |
| 20260505112719 | 21 | 177 | 1.6 | 8.0 | 0.00 | 0.00 | 0.00 | 90 | 1005.3 |
| 20260505112217 | 21 | 136 | 0.0 | 1.6 | 0.00 | 0.00 | 0.00 | 90 | 1005.4 |
| 20260505111712 | 21 | 159 | 3.2 | 3.2 | 0.00 | 0.00 | 0.00 | 89 | 1005.3 |
| 20260505111208 | 21 | 115 | 3.2 | 4.8 | 0.00 | 0.00 | 0.00 | 89 | 1005.5 |
| 20260505110704 | 21 | 198 | 3.2 | 4.8 | 0.00 | 0.00 | 0.00 | 89 | 1005.4 |
| 20260505110202 | 21 | 196 | 1.6 | 3.2 | 0.00 | 0.00 | 0.00 | 89 | 1005.3 |
| 20260505102137 | 21 | 137 | 1.6 | 11.3 | 0.00 | 0.00 | 0.00 | 88 | 1005.0 |
| 20260505101636 | 21 | 171 | 3.2 | 11.3 | 0.00 | 0.00 | 0.00 | 88 | 1005.0 |
| 20260505101132 | 21 | 110 | 1.6 | 4.8 | 0.00 | 0.00 | 0.00 | 88 | 1005.1 |
| 20260505100628 | 21 | 78 | 6.4 | 9.7 | 0.00 | 0.00 | 0.00 | 88 | 1005.3 |
| 20260505100125 | 21 | 125 | 0.0 | 4.8 | 0.00 | 0.00 | 0.00 | 88 | 1005.4 |
| 20260505095621 | 21 | 170 | 4.8 | 8.0 | 0.00 | 0.00 | 0.00 | 88 | 1005.3 |
| 20260505095118 | 21 | 117 | 3.2 | 8.0 | 0.00 | 0.00 | 0.00 | 88 | 1005.3 |
| 20260505094614 | 21 | 203 | 3.2 | 16.1 | 0.00 | 0.00 | 0.00 | 87 | 1005.4 |
| 20260505094111 | 21 | 177 | 8.0 | 12.9 | 0.00 | 0.00 | 0.00 | 87 | 1005.4 |
| 20260505093607 | 21 | 117 | 4.8 | 4.8 | 0.00 | 0.00 | 0.00 | 87 | 1005.6 |
| 20260505093104 | 21 | 222 | 3.2 | 4.8 | 0.00 | 0.00 | 0.00 | 87 | 1005.4 |
| 20260505092601 | 21 | 216 | 3.2 | 24.1 | 0.00 | 0.00 | 0.00 | 87 | 1005.4 |
| 20260505092100 | 21 | 171 | 6.4 | 8.0 | 0.00 | 0.00 | 0.00 | 87 | 1005.4 |
| 20260505091556 | 21 | 107 | 1.6 | 9.7 | 0.00 | 0.00 | 0.00 | 86 | 1005.5 |
| 20260505091055 | 21 | 175 | 8.0 | 14.5 | 0.00 | 0.00 | 0.00 | 86 | 1005.4 |
| 20260505090552 | 21 | 71 | 4.8 | 9.7 | 0.00 | 0.00 | 0.00 | 86 | 1005.7 |
| 20260505090050 | 21 | 169 | 3.2 | 4.8 | 0.00 | 0.00 | 0.00 | 86 | 1005.7 |
| 20260505085548 | 21 | 129 | 1.6 | 8.0 | 0.00 | 0.00 | 0.00 | 86 | 1005.5 |
| 20260505085046 | 21 | 62 | 1.6 | 4.8 | 0.00 | 0.00 | 0.00 | 86 | 1005.4 |
| 20260505084543 | 21 | 133 | 1.6 | 4.8 | 0.00 | 0.00 | 0.00 | 85 | 1005.6 |
| 20260505084041 | 22 | 111 | 3.2 | 8.0 | 0.00 | 0.00 | 0.00 | 85 | 1005.6 |
| 20260505083538 | 22 | 138 | 3.2 | 16.1 | 0.00 | 0.00 | 0.00 | 85 | 1005.6 |
| 20260505083035 | 22 | 202 | 4.8 | 4.8 | 0.00 | 0.00 | 0.00 | 85 | 1005.5 |
| 20260505082530 | 22 | 164 | 4.8 | 8.0 | 0.00 | 0.00 | 0.00 | 84 | 1005.3 |
| 20260505082027 | 22 | 259 | 1.6 | 3.2 | 0.00 | 0.00 | 0.00 | 84 | 1005.6 |
| 20260505081524 | 22 | 168 | 1.6 | 8.0 | 0.00 | 0.00 | 0.00 | 84 | 1005.6 |
| 20260505081021 | 22 | 180 | 1.6 | 14.5 | 0.00 | 0.00 | 0.00 | 84 | 1005.6 |
| 20260505080517 | 22 | 193 | 6.4 | 12.9 | 0.00 | 0.00 | 0.00 | 83 | 1005.7 |
| 20260505080014 | 22 | 147 | 1.6 | 11.3 | 0.00 | 0.00 | 0.00 | 83 | 1005.9 |
| 20260505075510 | 22 | 157 | 4.8 | 4.8 | 0.00 | 0.00 | 0.00 | 83 | 1005.9 |
| 20260505075007 | 22 | 120 | 1.6 | 9.7 | 0.00 | 0.00 | 0.00 | 83 | 1005.8 |
| 20260505074504 | 22 | 124 | 3.2 | 8.0 | 0.00 | 0.00 | 0.00 | 83 | 1006.0 |
| 20260505074001 | 22 | 186 | 3.2 | 8.0 | 0.00 | 0.00 | 0.00 | 82 | 1005.9 |
| 20260505073459 | 22 | 154 | 3.2 | 8.0 | 0.00 | 0.00 | 0.00 | 82 | 1006.1 |
| 20260505072956 | 22 | 129 | 1.6 | 4.8 | 0.00 | 0.00 | 0.00 | 82 | 1006.1 |
| 20260505072452 | 22 | 172 | 3.2 | 3.2 | 0.00 | 0.00 | 0.00 | 82 | 1006.2 |
| 20260505071948 | 22 | 144 | 1.6 | 11.3 | 0.00 | 0.00 | 0.00 | 81 | 1006.2 |
| 20260505071444 | 22 | 154 | 6.4 | 9.7 | 0.00 | 0.00 | 0.00 | 81 | 1006.3 |
| 20260505070943 | 22 | 140 | 1.6 | 4.8 | 0.00 | 0.00 | 0.00 | 81 | 1006.3 |
| 20260505070439 | 22 | 146 | 4.8 | 11.3 | 0.00 | 0.00 | 0.00 | 81 | 1006.3 |
| 20260505065935 | 22 | 130 | 1.6 | 9.7 | 0.00 | 0.00 | 0.00 | 80 | 1006.5 |
| 20260505065431 | 22 | 127 | 1.6 | 4.8 | 0.00 | 0.00 | 0.00 | 80 | 1006.5 |
| 20260505064928 | 22 | 185 | 4.8 | 12.9 | 0.00 | 0.00 | 0.00 | 80 | 1006.6 |
| 20260505064425 | 22 | 191 | 6.4 | 9.7 | 0.00 | 0.00 | 0.00 | 79 | 1006.8 |
| 20260505063923 | 22 | 132 | 3.2 | 3.2 | 0.00 | 0.00 | 0.00 | 78 | 1006.8 |
| 20260505063420 | 22 | 184 | 1.6 | 9.7 | 0.00 | 0.00 | 0.00 | 78 | 1007.0 |
| 20260505062916 | 22 | 123 | 1.6 | 4.8 | 0.00 | 0.00 | 0.00 | 78 | 1006.8 |
| 20260505062414 | 23 | 213 | 4.8 | 8.0 | 0.00 | 0.00 | 0.00 | 78 | 1007.0 |
| 20260505061910 | 23 | 139 | 3.2 | 9.7 | 0.00 | 0.00 | 0.00 | 77 | 1006.9 |
| 20260505061409 | 23 | 181 | 1.6 | 16.1 | 0.00 | 0.00 | 0.00 | 76 | 1006.8 |
| 20260505060906 | 23 | 145 | 1.6 | 4.8 | 0.00 | 0.00 | 0.00 | 76 | 1006.8 |
| 20260505060402 | 23 | 175 | 3.2 | 4.8 | 0.00 | 0.00 | 0.00 | 76 | 1006.8 |
| 20260505055858 | 23 | 115 | 3.2 | 9.7 | 0.00 | 0.00 | 0.00 | 76 | 1006.8 |
| 20260505055355 | 23 | 161 | 1.6 | 3.2 | 0.00 | 0.00 | 0.00 | 75 | 1006.8 |
| 20260505054852 | 23 | 180 | 3.2 | 8.0 | 0.00 | 0.00 | 0.00 | 75 | 1006.8 |
| 20260505054349 | 23 | 138 | 6.4 | 14.5 | 0.00 | 0.00 | 0.00 | 74 | 1006.5 |
| 20260505053847 | 23 | 106 | 4.8 | 9.7 | 0.00 | 0.00 | 0.00 | 74 | 1006.8 |
| 20260505053344 | 23 | 147 | 1.6 | 8.0 | 0.00 | 0.00 | 0.00 | 74 | 1006.7 |
| 20260505052841 | 23 | 148 | 3.2 | 4.8 | 0.00 | 0.00 | 0.00 | 73 | 1006.7 |
| 20260505052337 | 23 | 111 | 1.6 | 4.8 | 0.00 | 0.00 | 0.00 | 72 | 1006.8 |
| 20260505051835 | 24 | 189 | 1.6 | 9.7 | 0.00 | 0.00 | 0.00 | 72 | 1006.8 |
| 20260505051332 | 24 | 185 | 4.8 | 8.0 | 0.00 | 0.00 | 0.00 | 71 | 1006.8 |
| 20260505050830 | 24 | 205 | 4.8 | 12.9 | 0.00 | 0.00 | 0.00 | 71 | 1006.9 |
| 20260505050328 | 24 | 128 | 1.6 | 9.7 | 0.00 | 0.00 | 0.00 | 71 | 1007.0 |
| 20260505041758 | 24 | 145 | 1.6 | 3.2 | 0.00 | 0.00 | 0.00 | 72 | 1007.1 |
| 20260505041255 | 24 | 82 | 1.6 | 3.2 | 0.00 | 0.00 | 0.00 | 72 | 1007.1 |
| 20260505040753 | 23 | 254 | 1.6 | 3.2 | 0.00 | 0.00 | 0.00 | 72 | 1007.3 |
| 20260505040250 | 23 | 207 | 3.2 | 4.8 | 0.00 | 0.00 | 0.00 | 72 | 1007.0 |
| 20260505035747 | 23 | 62 | 1.6 | 11.3 | 0.00 | 0.00 | 0.00 | 72 | 1007.1 |
| 20260505035242 | 23 | 142 | 3.2 | 4.8 | 0.00 | 0.00 | 0.00 | 72 | 1007.1 |
| 20260505034739 | 23 | 186 | 1.6 | 1.6 | 0.00 | 0.00 | 0.00 | 73 | 1007.3 |